Location: Brunnen
(48.6541°N, 10.9920°E)
Time: 07:18:04
(UTC+00:00)

MTI - Pass Details

Date: 01 June 2020
Orbit: 393 x 405 km, 97.5° (Epoch: 15 July)

Event Time Altitude Azimuth Distance (km) Brightness Sun altitude
Rises 21:13:08 0° 15° (NNE) 2,347 8.3 -14.2°
Reaches altitude 10° 21:15:09 10° 19° (NNE) 1,480 7.1 -14.3°
Maximum altitude 21:18:17 65° 102° (ESE) 453 3.7 -14.6°
Enters shadow 21:19:36 31° 175° (S) 743 4.5 -14.7°
